This demonstration page uses our WeatherBlox Daily Observations layout. Learn more.

Left ArrowRight Arrow

Hourly Observations for February 1, 2018

Temp ( °F °C ) Dew Point ( °F °C ) Humidity (%) Winds ( mph kmh ) Pressure ( in mb ) Visibility ( mi km ) Precip ( " mm )
12:15 am 00:15 Clear 39 4 23 -5 52 52 SSW 10 17 30.03 1017 10 16.0934 0 0
12:35 am 00:35 Clear 39 4 23 -5 52 52 SSW 9 15 30.03 1017 10 16.0934 0 0
12:55 am 00:55 Clear 39 4 23 -5 52 52 SSW 8 13 30.03 1017 10 16.0934 0 0
1:15 am 01:15 Clear 39 4 23 -5 52 52 SSW 8 13 30.03 1017 10 16.0934 0 0
1:35 am 01:35 Clear 39 4 23 -5 52 52 SSW 8 13 30.03 1017 10 16.0934 0 0
1:55 am 01:55 Clear 39 4 23 -5 52 52 SSW 9 15 30.03 1017 10 16.0934 0 0
2:15 am 02:15 Clear 39 4 23 -5 52 52 SSW 8 13 30.03 1017 10 16.0934 0 0
2:35 am 02:35 Clear 39 4 23 -5 52 52 SSW 9 15 30.03 1017 10 16.0934 0 0
2:55 am 02:55 Clear 39 4 23 -5 52 52 SSW 8 13 30.03 1017 10 16.0934 0 0
3:15 am 03:15 Clear 37 3 23 -5 56 56 SSW 9 15 30 1016 10 16.0934 0 0
3:35 am 03:35 Clear 37 3 23 -5 56 56 SSW 9 15 30.03 1017 10 16.0934 0 0
3:55 am 03:55 Clear 37 3 23 -5 56 56 SSW 8 13 30.03 1017 10 16.0934 0 0
4:15 am 04:15 Clear 37 3 25 -4 60 60 SSW 7 11 30 1016 10 16.0934 0 0
4:35 am 04:35 Clear 37 3 25 -4 60 60 SW 6 9 30.03 1017 10 16.0934 0 0
4:55 am 04:55 Clear 37 3 25 -4 60 60 SSW 7 11 30 1016 10 16.0934 0 0
5:15 am 05:15 Clear 37 3 25 -4 60 60 SSW 7 11 30.03 1017 10 16.0934 0 0
5:35 am 05:35 Clear 37 3 25 -4 60 60 SSW 7 11 30.03 1017 10 16.0934 0 0
5:55 am 05:55 Partly Cloudy 37 3 25 -4 60 60 SSW 7 11 30.03 1017 10 16.0934 0 0
6:15 am 06:15 Mostly Cloudy 37 3 25 -4 60 60 SSW 6 9 30.03 1017 10 16.0934 0 0
6:35 am 06:35 Cloudy 37 3 25 -4 60 60 SSW 6 9 30 1016 10 16.0934 0 0
6:55 am 06:55 Cloudy 37 3 25 -4 60 60 S 6 9 30 1016 10 16.0934 0 0
7:15 am 07:15 Cloudy 37 3 25 -4 60 60 S 6 9 30 1016 10 16.0934 0 0
7:35 am 07:35 Cloudy 37 3 27 -3 65 65 SSW 6 9 30.03 1017 10 16.0934 0 0
7:55 am 07:55 Cloudy 37 3 27 -3 65 65 SSW 6 9 30.03 1017 10 16.0934 0 0
8:15 am 08:15 Cloudy 39 4 27 -3 61 61 SSW 6 9 30 1016 10 16.0934 0 0
8:35 am 08:35 Partly Cloudy 39 4 27 -3 61 61 S 6 9 30.03 1017 10 16.0934 0 0
8:55 am 08:55 Sunny 41 5 27 -3 57 57 SSW 7 11 30.03 1017 10 16.0934 0 0
9:15 am 09:15 Sunny 41 5 27 -3 57 57 SSW 5 7 30.03 1017 10 16.0934 0 0
9:35 am 09:35 Sunny 41 5 27 -3 57 57 SSW 3 6 30.03 1017 10 16.0934 0 0
9:55 am 09:55 Sunny 43 6 27 -3 53 53 S 6 9 30.03 1017 10 16.0934 0 0
10:15 am 10:15 Sunny 43 6 27 -3 53 53 SSW 6 9 30.03 1017 10 16.0934 0 0
10:35 am 10:35 Sunny 43 6 27 -3 53 53 S 6 9 30.03 1017 10 16.0934 0 0
10:55 am 10:55 Sunny 43 6 27 -3 53 53 SSW 8 13 30 1016 10 16.0934 0 0
11:15 am 11:15 Sunny 43 6 27 -3 53 53 SSW 7 11 30 1016 10 16.0934 0 0
11:35 am 11:35 Sunny 45 7 28 -2 53 53 SSW 6 9 30 1016 10 16.0934 0 0
11:55 am 11:55 Sunny 45 7 28 -2 53 53 SSW 5 7 30 1016 10 16.0934 0 0
12:15 pm 12:15 Sunny 45 7 28 -2 53 53 SSW 6 9 29.97 1015 10 16.0934 0 0
12:35 pm 12:35 Sunny 45 7 28 -2 53 53 SSW 7 11 29.97 1015 10 16.0934 0 0
12:55 pm 12:55 Sunny 45 7 28 -2 53 53 SSW 5 7 29.97 1015 10 16.0934 0 0
1:15 pm 13:15 Sunny 46 8 28 -2 50 50 SSW 8 13 29.97 1015 10 16.0934 0 0
1:35 pm 13:35 Sunny 46 8 30 -1 53 53 SSW 10 17 29.94 1014 10 16.0934 0 0
1:55 pm 13:55 Sunny 48 9 30 -1 50 50 SSW 10 17 29.91 1013 10 16.0934 0 0
2:15 pm 14:15 Sunny 48 9 30 -1 50 50 SSW 9 15 29.91 1013 10 16.0934 0 0
2:35 pm 14:35 Sunny 50 10 30 -1 47 47 SSW 9 15 29.91 1013 10 16.0934 0 0
2:55 pm 14:55 Sunny 50 10 32 0 50 50 S 10 17 29.91 1013 10 16.0934 0 0
3:15 pm 15:15 Sunny 50 10 32 0 50 50 SSW 10 17 29.91 1013 10 16.0934 0 0
3:35 pm 15:35 Sunny 50 10 32 0 50 50 S 8 13 29.91 1013 10 16.0934 0 0
3:55 pm 15:55 Sunny 50 10 32 0 50 50 SSW 6 9 29.91 1013 10 16.0934 0 0
4:15 pm 16:15 Sunny 50 10 32 0 50 50 SSW 7 11 29.88 1012 10 16.0934 0 0
4:35 pm 16:35 Mostly Cloudy 50 10 32 0 50 50 SSW 7 11 29.88 1012 10 16.0934 0 0
4:55 pm 16:55 Mostly Cloudy 50 10 32 0 50 50 SSW 7 11 29.88 1012 10 16.0934 0 0
5:15 pm 17:15 Cloudy 50 10 32 0 50 50 SW 6 9 29.88 1012 10 16.0934 0 0
5:35 pm 17:35 Cloudy 50 10 32 0 50 50 SW 5 7 29.88 1012 10 16.0934 0 0
5:55 pm 17:55 Cloudy 50 10 32 0 50 50 SW 5 7 29.88 1012 10 16.0934 0 0
6:15 pm 18:15 Cloudy 50 10 34 1 54 54 SSW 8 13 29.88 1012 10 16.0934 0 0
6:35 pm 18:35 Cloudy 50 10 34 1 54 54 SW 8 13 29.88 1012 10 16.0934 0 0
6:55 pm 18:55 Clear 36 2 16 -9 44 44 S 13 20 30.09 1019 10 16.0934 0 0
7:15 pm 19:15 Cloudy 50 10 36 2 58 58 SSW 6 9 29.88 1012 10 16.0934 0 0
7:35 pm 19:35 Cloudy 50 10 36 2 58 58 SW 7 11 29.88 1012 10 16.0934 0 0
7:55 pm 19:55 Cloudy 52 11 36 2 54 54 SW 9 15 29.85 1011 10 16.0934 0 0
8:15 pm 20:15 Cloudy 52 11 36 2 54 54 SW 8 13 29.85 1011 10 16.0934 0 0
8:35 pm 20:35 Cloudy with Drizzle 50 10 36 2 58 58 W 10 17 29.88 1012 10 16.0934 0 0
8:55 pm 20:55 Cloudy with Rain 46 8 43 6 87 87 NW 8 13 29.91 1013 5 8.0467 0.01 0.254
9:15 pm 21:15 Cloudy with Rain 45 7 43 6 93 93 WNW 5 7 29.91 1013 5 8.0467 0.02 0.508
9:35 pm 21:35 Cloudy with Light Rain 45 7 45 7 100 100 N 6 9 29.91 1013 7 11.26538 0.04 1.016
9:55 pm 21:55 Cloudy with Light Rain 45 7 43 6 93 93 NW 9 15 29.91 1013 10 16.0934 0.04 1.016
10:15 pm 22:15 Cloudy with Rain 43 6 43 6 100 100 NNW 10 17 29.94 1014 7 11.26538 0.01 0.254
10:35 pm 22:35 Cloudy with Rain 43 6 41 5 93 93 N 14 22 29.94 1014 7 11.26538 0.04 1.016
10:55 pm 22:55 Cloudy with Light Rain 41 5 41 5 100 100 N 8 13 29.94 1014 10 16.0934 0.05 1.27
11:15 pm 23:15 Cloudy with Light Rain 41 5 41 5 100 100 NNW 8 13 29.97 1015 10 16.0934 0.01 0.254
11:35 pm 23:35 Cloudy with Light Rain 41 5 41 5 100 100 NNW 10 17 29.97 1015 4 6.43736 0.02 0.508
11:55 pm 23:55 Cloudy with Rain 39 4 39 4 100 100 NNW 10 17 29.97 1015 3 4.82802 0.05 1.27

Powered by AerisWeather